Regional Weather Roundup
Issued by NWS Cleveland, OH

Home | Current Version | Previous Version | Text Only | Print | Product List | Glossary On
Versions: 1 2 3 4 5 6 7 8 9 10 11 12 13 14 15 16 17 18 19 20 21 22 23 24 25 26 27 28 29 30 31 32 33 34 35 36 37 38 39 40 41 42 43 44 45 46 47 48 49 50
000
ASUS41 KCLE 250712
RWRCLE
OHIO REGIONAL WEATHER ROUNDUP
NATIONAL WEATHER SERVICE WILMINGTON, OH
200 AM EST SAT FEB 25 2017

NOTE: "FAIR" INDICATES FEW OR NO CLOUDS BELOW 12,000 FEET WITH NO
SIGNIFICANT WEATHER AND/OR OBSTRUCTIONS TO VISIBILITY.

OHZ001>008-015>018-024>027-034-035-043-044-250800-
   NORTHWEST OHIO

CITY           SKY/WX    TMP DP  RH WIND       PRES   REMARKS
DEFIANCE       CLOUDY    42  35  76 W7G17     29.59R
FINDLAY        CLOUDY    45  37  73 W23G32    29.59R
TOLEDO EXPRESS CLOUDY    44  42  93 W13       29.56R
TOLEDO EXEC    CLOUDY    47  43  86 W14       29.57R
LIMA           CLOUDY    44  38  79 W17G29    29.63R
$$

OHZ009>014-019>023-028>033-038-089-250800-
   NORTHEAST OHIO

CITY           SKY/WX    TMP DP  RH WIND       PRES   REMARKS
CLE-HOPKINS    LGT RAIN  57  51  80 W14       29.54R
CLE-LAKEFRONT  CLOUDY    51  48  89 W12       29.51S
CUY CO. ARPT   NOT AVBL
LORAIN-ELYRIA  CLOUDY    54  47  77 W12       29.53S
ASHTABULA      RAIN      57  55  93 S10       29.54F FOG
AKRON-CANTON   LGT RAIN  57  53  86 S15       29.56R FOG
WOOSTER        LGT RAIN  57  54  89 W15       29.53F
MANSFIELD      CLOUDY    53  49  86 W8        29.55S
YOUNGSTOWN     TSTM      56  52  86 S7        29.57F
$$

OHZ042-051>053-060>062-070>072-077>081-250800-
  SOUTHWEST OHIO

CITY           SKY/WX    TMP DP  RH WIND       PRES   REMARKS
CINC-COVINGTON MOCLDY    49  42  77 W6        29.65R
CINC-LUNKEN    MOCLDY    51  43  74 NW8       29.67R
HAMILTON       MOCLDY    49  41  74 W10       29.66R
DAYTON         CLOUDY    45  38  76 NW20G25   29.63F
WRIGHT-PAT AFB PTCLDY    48  41  76 W8G22     29.61F
DAYTON GENERAL MOCLDY    48  42  80 NW12      29.61F
WILMINGTON     CLOUDY    49  39  68 W16G24    29.62R
$$

OHZ036-037-039>041-045>050-054>059-063>069-073>076-082>088-250800-
  CENTRAL AND SOUTHEAST OHIO

CITY           SKY/WX    TMP DP  RH WIND       PRES   REMARKS
COLUMBUS       CLOUDY    55  48  77 W12       29.59R
OSU AIRPORT    CLOUDY    52  48  86 W16       29.59R
BOLTON FIELD   CLOUDY    52  47  82 W8G16     29.61R
RICKENBACK AFB CLOUDY    52  50  90 W5        29.59F
NEWARK         LGT RAIN  55  49  80 W10       29.58R
MARION         MOCLDY    47  41  80 W16G25    29.59R
LANCASTER      CLOUDY    55  52  89 W6        29.61R
ZANESVILLE     RAIN      57  55  93 S10       29.59R FOG
NEW PHILLY     RAIN      56  55  97 SE6       29.57S FOG
$$



USA.gov is the U.S. government's official web portal to all federal, state and local government web resources and services.